{"data":{"norad_id":66196,"epoch":"2026-05-24T15:33:18.368928Z","epoch_age_seconds":98719,"freshness":"FRESH","line1":"1 66196U 25243V   26144.64812927  .00014877  00000+0  51364-3 0  9998","line2":"2 66196  53.1566 252.4155 0001469  75.4068 284.7095 15.30186153 32283","mean_motion":15.30186153,"eccentricity":0.0001469,"inclination_deg":53.1566,"raan_deg":252.4155,"arg_perigee_deg":75.4068,"mean_anomaly_deg":284.7095,"bstar":0.00051364,"rev_number":3228,"period_min":94.106197286965,"perigee_km":474.24965088459,"apogee_km":476.26317786974,"semimajor_km":6853.3934143772,"source":"CELESTRAK","updated_at":"2026-05-25T13:38:21.123160Z"}}